,,Stat5,,Stat1,,Stat2,,Stat3,,Stat4,,Wind1,,Wind1,
time,status,PA1M_AVG,status,PR1M_SUM,status,RH1M_AVG,status,SR1M_AVG,status,TA1M_AVG,status,W1dAve1m,status,W1sAve1m,
2001-07-31, 00:00:00,VALID,919.23,VALID,0,VALID,99.2004,VALID,-0.0169808,VALID,19.3335,VALID,38,VALID,0,
2001-07-31, 00:01:00,VALID,919.236,VALID,0,VALID,99.203,VALID,-0.0339617,VALID,19.3208,VALID,39,VALID,0,
2001-07-31, 00:02:00,VALID,919.215,VALID,0,VALID,99.2068,VALID,-0.0509425,VALID,19.3114,VALID,49,VALID,0,
2001-07-31, 00:03:00,VALID,919.208,VALID,0,VALID,99.2195,VALID,-0.0339617,VALID,19.3014,VALID,68,VALID,0,
2001-07-31, 00:04:00,VALID,919.182,VALID,0,VALID,99.2131,VALID,-0.0169808,VALID,19.3079,VALID,63,VALID,0,
2001-07-31, 00:05:00,VALID,919.143,VALID,0,VALID,99.203,VALID,-0.0169808,VALID,19.2888,VALID,77,VALID,0,
2001-07-31, 00:06:00,VALID,919.125,VALID,0,VALID,99.203,VALID,-0.0339617,VALID,19.2761,VALID,89,VALID,0.089343,
2001-07-31, 00:07:00,VALID,919.101,VALID,0,VALID,99.2119,VALID,-0.0169808,VALID,19.2493,VALID,104,VALID,0.604688,
2001-07-31, 00:08:00,VALID,919.098,VALID,0,VALID,99.2106,VALID,-0.0339617,VALID,19.2401,VALID,124,VALID,0.675253,
2001-07-31, 00:09:00,VALID,919.094,VALID,0,VALID,99.1928,VALID,-0.0509425,VALID,19.2274,VALID,124,VALID,0.667468,
2001-07-31, 00:10:00,VALID,919.112,VALID,0,VALID,99.1928,VALID,-0.0679233,VALID,19.2053,VALID,132,VALID,0.560096,
2001-07-31, 00:11:00,VALID,919.12,VALID,0,VALID,99.2284,VALID,-0.0679233,VALID,19.1951,VALID,139,VALID,0.676309,
2001-07-31, 00:12:00,VALID,919.121,VALID,0,VALID,99.2144,VALID,-0.0339617,VALID,19.2011,VALID,142,VALID,0.885485,
2001-07-31, 00:13:00,VALID,919.126,VALID,0,VALID,99.2258,VALID,0,VALID,19.2078,VALID,141,VALID,0.81065,
2001-07-31, 00:14:00,VALID,919.106,VALID,0,VALID,99.2042,VALID,0,VALID,19.1822,VALID,137,VALID,0.870877,
2001-07-31, 00:15:00,VALID,919.096,VALID,0,VALID,99.1915,VALID,-0.0679233,VALID,19.14,VALID,140,VALID,0.94992,
2001-07-31, 00:16:00,VALID,919.066,VALID,0,VALID,99.2042,VALID,-0.0339617,VALID,19.1303,VALID,144,VALID,1.04256,
2001-07-31, 00:17:00,VALID,919.027,VALID,0,VALID,99.208,VALID,-0.0169808,VALID,19.134,VALID,142,VALID,0.958615,
2001-07-31, 00:18:00,VALID,918.99,VALID,0,VALID,99.222,VALID,0,VALID,19.1238,VALID,148,VALID,0.716146,
2001-07-31, 00:19:00,VALID,918.954,VALID,0,VALID,99.2386,VALID,-0.0339617,VALID,19.1141,VALID,159,VALID,0.379112,
2001-07-31, 00:20:00,VALID,918.939,VALID,0,VALID,99.2373,VALID,-0.0339617,VALID,19.1146,VALID,168,VALID,0.00886824,
2001-07-31, 00:21:00,VALID,918.937,VALID,0,VALID,99.2386,VALID,-0.0339617,VALID,19.0888,VALID,176,VALID,0,
2001-07-31, 00:22:00,VALID,918.937,VALID,0,VALID,99.2258,VALID,-0.0679233,VALID,19.0721,VALID,187,VALID,0,
2001-07-31, 00:23:00,VALID,918.945,VALID,0,VALID,99.2309,VALID,-0.0339617,VALID,19.0565,VALID,187,VALID,0,
2001-07-31, 00:24:00,VALID,918.939,VALID,0,VALID,99.2322,VALID,-0.0509425,VALID,19.0433,VALID,187,VALID,0,
2001-07-31, 00:25:00,VALID,918.917,VALID,0,VALID,99.2297,VALID,-0.0509425,VALID,19.0339,VALID,187,VALID,0,
2001-07-31, 00:26:00,VALID,918.889,VALID,0,VALID,99.2284,VALID,0,VALID,19.0339,VALID,187,VALID,0,
2001-07-31, 00:27:00,VALID,918.851,VALID,0,VALID,99.2373,VALID,-0.0849042,VALID,19.0242,VALID,248,VALID,0,
2001-07-31, 00:28:00,VALID,918.826,VALID,0,VALID,99.2347,VALID,0,VALID,19.0403,VALID,262,VALID,0,
2001-07-31, 00:29:00,VALID,918.814,VALID,0,VALID,99.2462,VALID,-0.0169808,VALID,19.0401,VALID,262,VALID,0,
2001-07-31, 00:30:00,VALID,918.827,VALID,0,VALID,99.2525,VALID,-0.0509425,VALID,19.0401,VALID,262,VALID,0,
2001-07-31, 00:31:00,VALID,918.861,VALID,0,VALID,99.2347,VALID,-0.0169808,VALID,19.0272,VALID,176,VALID,0,
2001-07-31, 00:32:00,VALID,918.892,VALID,0,VALID,99.2258,VALID,-0.0509425,VALID,18.9986,VALID,98,VALID,0,
2001-07-31, 00:33:00,VALID,918.907,VALID,0,VALID,99.2411,VALID,-0.0339617,VALID,18.9884,VALID,98,VALID,0,
2001-07-31, 00:34:00,VALID,918.92,VALID,0,VALID,99.236,VALID,-0.0169808,VALID,18.9854,VALID,98,VALID,0.50514,
2001-07-31, 00:35:00,VALID,918.929,VALID,0,VALID,99.2525,VALID,0,VALID,18.9559,VALID,107,VALID,0.468304,
2001-07-31, 00:36:00,VALID,918.922,VALID,0,VALID,99.2653,VALID,-0.0169808,VALID,18.9658,VALID,146,VALID,0.305889,
2001-07-31, 00:37:00,VALID,918.903,VALID,0,VALID,99.2678,VALID,-0.0169808,VALID,18.9757,VALID,152,VALID,0.0653409,
2001-07-31, 00:38:00,VALID,918.877,VALID,0,VALID,99.2894,VALID,0,VALID,18.9919,VALID,152,VALID,0,
2001-07-31, 00:39:00,VALID,918.853,VALID,0,VALID,99.2932,VALID,-0.0169808,VALID,18.9949,VALID,152,VALID,0,
2001-07-31, 00:40:00,VALID,918.836,VALID,0,VALID,99.306,VALID,0,VALID,18.9983,VALID,139,VALID,0.0538862,
2001-07-31, 00:41:00,VALID,918.836,VALID,0,VALID,99.3174,VALID,-0.0169808,VALID,19.0306,VALID,131,VALID,0.480273,
2001-07-31, 00:42:00,VALID,918.849,VALID,0,VALID,99.3238,VALID,-0.0169808,VALID,19.0662,VALID,114,VALID,0.226786,
2001-07-31, 00:43:00,VALID,918.854,VALID,0,VALID,99.3276,VALID,-0.0339617,VALID,19.0922,VALID,63,VALID,0.122889,
2001-07-31, 00:44:00,VALID,918.868,VALID,0,VALID,99.3136,VALID,0,VALID,19.0885,VALID,39,VALID,0.484835,
2001-07-31, 00:45:00,VALID,918.865,VALID,0,VALID,99.2983,VALID,0,VALID,19.0403,VALID,40,VALID,0.573661,
2001-07-31, 00:46:00,VALID,918.88,VALID,0,VALID,99.2843,VALID,-0.0509425,VALID,19.0048,VALID,42,VALID,0.712941,
2001-07-31, 00:47:00,VALID,918.906,VALID,0,VALID,99.2894,VALID,-0.0169808,VALID,18.9951,VALID,44,VALID,0.686233,
2001-07-31, 00:48:00,VALID,918.921,VALID,0,VALID,99.2958,VALID,0,VALID,19.0016,VALID,40,VALID,0.590049,
2001-07-31, 00:49:00,VALID,918.933,VALID,0,VALID,99.2882,VALID,-0.0169808,VALID,18.9792,VALID,57,VALID,0.801339,
2001-07-31, 00:50:00,VALID,918.959,VALID,0,VALID,99.2983,VALID,-0.0339617,VALID,18.979,VALID,51,VALID,0.730369,
2001-07-31, 00:51:00,VALID,918.961,VALID,0,VALID,99.306,VALID,-0.0169808,VALID,18.9889,VALID,54,VALID,0.724432,
2001-07-31, 00:52:00,VALID,918.958,VALID,0,VALID,99.3174,VALID,-0.0169808,VALID,18.9914,VALID,61,VALID,0.671224,
2001-07-31, 00:53:00,VALID,918.969,VALID,0,VALID,99.3047,VALID,-0.0169808,VALID,18.9785,VALID,84,VALID,0.491365,
2001-07-31, 00:54:00,VALID,918.958,VALID,0,VALID,99.3085,VALID,-0.0509425,VALID,18.979,VALID,98,VALID,0.756611,
2001-07-31, 00:55:00,VALID,918.945,VALID,0,VALID,99.3085,VALID,0,VALID,18.9725,VALID,79,VALID,0.527148,
2001-07-31, 00:56:00,VALID,918.915,VALID,0,VALID,99.311,VALID,0,VALID,18.9757,VALID,56,VALID,0.82567,
2001-07-31, 00:57:00,VALID,918.882,VALID,0,VALID,99.3123,VALID,-0.0509425,VALID,18.9857,VALID,53,VALID,0.856419,
2001-07-31, 00:58:00,VALID,918.863,VALID,0,VALID,99.3263,VALID,-0.0169808,VALID,18.9986,VALID,35,VALID,0.81296,
2001-07-31, 00:59:00,VALID,918.855,VALID,0,VALID,99.339,VALID,0,VALID,19.0142,VALID,28,VALID,0.671875,
2001-07-31, 01:00:00,VALID,918.846,VALID,0,VALID,99.3479,VALID,-0.0509425,VALID,19.0336,VALID,23,VALID,0.335737,
2001-07-31, 01:01:00,VALID,918.841,VALID,0,VALID,99.3428,VALID,0.0169808,VALID,19.05,VALID,22,VALID,0,
2001-07-31, 01:02:00,VALID,918.862,VALID,0,VALID,99.339,VALID,-0.0169808,VALID,19.0632,VALID,22,VALID,0,
2001-07-31, 01:03:00,VALID,918.875,VALID,0,VALID,99.3466,VALID,0,VALID,19.0565,VALID,22,VALID,0,
2001-07-31, 01:04:00,VALID,918.881,VALID,0,VALID,99.3428,VALID,-0.0169808,VALID,19.0694,VALID,9,VALID,0,
2001-07-31, 01:05:00,VALID,918.87,VALID,0,VALID,99.3288,VALID,0,VALID,19.0465,VALID,271,VALID,0,
2001-07-31, 01:06:00,VALID,918.854,VALID,0,VALID,99.3327,VALID,-0.0339617,VALID,19.0304,VALID,290,VALID,0,
2001-07-31, 01:07:00,VALID,918.832,VALID,0,VALID,99.3365,VALID,-0.0169808,VALID,19.05,VALID,330,VALID,0.818051,
2001-07-31, 01:08:00,VALID,918.797,VALID,0,VALID,99.3403,VALID,-0.0169808,VALID,19.0175,VALID,336,VALID,0.792067,
2001-07-31, 01:09:00,VALID,918.786,VALID,0,VALID,99.3403,VALID,0,VALID,19.008,VALID,14,VALID,0.680859,
2001-07-31, 01:10:00,VALID,918.762,VALID,0,VALID,99.3492,VALID,0,VALID,19.0108,VALID,23,VALID,0.553795,
2001-07-31, 01:11:00,VALID,918.746,VALID,0,VALID,99.3619,VALID,0,VALID,19.0209,VALID,30,VALID,0.244721,
2001-07-31, 01:12:00,VALID,918.74,VALID,0,VALID,99.3517,VALID,0.0169808,VALID,19.0272,VALID,34,VALID,0,
2001-07-31, 01:13:00,VALID,918.746,VALID,0,VALID,99.3377,VALID,-0.0339617,VALID,19.0142,VALID,35,VALID,0,
2001-07-31, 01:14:00,VALID,918.742,VALID,0,VALID,99.3238,VALID,-0.0169808,VALID,19.0053,VALID,35,VALID,0,
2001-07-31, 01:15:00,VALID,918.75,VALID,0,VALID,99.3225,VALID,0,VALID,18.9695,VALID,35,VALID,0,
2001-07-31, 01:16:00,VALID,918.749,VALID,0,VALID,99.3212,VALID,0,VALID,18.943,VALID,35,VALID,0,
2001-07-31, 01:17:00,VALID,918.762,VALID,0,VALID,99.3339,VALID,0,VALID,18.9201,VALID,35,VALID,0,
2001-07-31, 01:18:00,VALID,918.767,VALID,0,VALID,99.3301,VALID,0,VALID,18.9308,VALID,35,VALID,0,
2001-07-31, 01:19:00,VALID,918.766,VALID,0,VALID,99.3377,VALID,0,VALID,18.9174,VALID,35,VALID,0,
2001-07-31, 01:20:00,VALID,918.77,VALID,0,VALID,99.3352,VALID,0,VALID,18.9278,VALID,35,VALID,0,
2001-07-31, 01:21:00,VALID,918.776,VALID,0,VALID,99.3288,VALID,-0.0169808,VALID,18.9181,VALID,35,VALID,0,
2001-07-31, 01:22:00,VALID,918.757,VALID,0,VALID,99.3174,VALID,-0.0169808,VALID,18.8982,VALID,35,VALID,0,
2001-07-31, 01:23:00,VALID,918.752,VALID,0,VALID,99.3174,VALID,0,VALID,18.8816,VALID,35,VALID,0,
2001-07-31, 01:24:00,VALID,918.732,VALID,0,VALID,99.311,VALID,-0.0339617,VALID,18.8657,VALID,35,VALID,0,
2001-07-31, 01:25:00,VALID,918.747,VALID,0,VALID,99.3161,VALID,0.0169808,VALID,18.8851,VALID,35,VALID,0,
2001-07-31, 01:26:00,VALID,918.731,VALID,0,VALID,99.3098,VALID,0,VALID,18.8982,VALID,35,VALID,0,
2001-07-31, 01:27:00,VALID,918.727,VALID,0,VALID,99.3161,VALID,0,VALID,18.8945,VALID,35,VALID,0,
2001-07-31, 01:28:00,VALID,918.724,VALID,0,VALID,99.3199,VALID,0,VALID,18.8851,VALID,35,VALID,0,
2001-07-31, 01:29:00,VALID,918.718,VALID,0,VALID,99.3174,VALID,0,VALID,18.8952,VALID,35,VALID,0,
2001-07-31, 01:30:00,VALID,918.706,VALID,0,VALID,99.311,VALID,-0.0339617,VALID,18.8495,VALID,35,VALID,0,
2001-07-31, 01:31:00,VALID,918.693,VALID,0,VALID,99.3187,VALID,0,VALID,18.8334,VALID,35,VALID,0,
2001-07-31, 01:32:00,VALID,918.685,VALID,0,VALID,99.3238,VALID,0,VALID,18.8237,VALID,35,VALID,0,
2001-07-31, 01:33:00,VALID,918.667,VALID,0,VALID,99.339,VALID,0.0169808,VALID,18.8041,VALID,10,VALID,0,
2001-07-31, 01:34:00,VALID,918.649,VALID,0,VALID,99.3212,VALID,0,VALID,18.7976,VALID,4,VALID,0,
2001-07-31, 01:35:00,VALID,918.628,VALID,0,VALID,99.3365,VALID,-0.0169808,VALID,18.7884,VALID,4,VALID,0,
2001-07-31, 01:36:00,VALID,918.615,VALID,0,VALID,99.3479,VALID,0.0509425,VALID,18.7949,VALID,5,VALID,0,
2001-07-31, 01:37:00,VALID,918.617,VALID,0,VALID,99.3492,VALID,0,VALID,18.785,VALID,5,VALID,0,
2001-07-31, 01:38:00,VALID,918.621,VALID,0,VALID,99.3568,VALID,-0.0169808,VALID,18.8018,VALID,5,VALID,0,
2001-07-31, 01:39:00,VALID,918.606,VALID,0,VALID,99.3632,VALID,0.0169808,VALID,18.8177,VALID,5,VALID,0,
2001-07-31, 01:40:00,VALID,918.609,VALID,0,VALID,99.3708,VALID,-0.0169808,VALID,18.8212,VALID,5,VALID,0,
2001-07-31, 01:41:00,VALID,918.588,VALID,0,VALID,99.3721,VALID,-0.0339617,VALID,18.8341,VALID,15,VALID,0,
2001-07-31, 01:42:00,VALID,918.562,VALID,0,VALID,99.3644,VALID,0,VALID,18.8046,VALID,20,VALID,0,
2001-07-31, 01:43:00,VALID,918.544,VALID,0,VALID,99.3734,VALID,-0.0169808,VALID,18.8046,VALID,20,VALID,0.243454,
2001-07-31, 01:44:00,VALID,918.092,VALID,0,VALID,99.3695,VALID,0,VALID,18.8083,VALID,18,VALID,0.607113,
2001-07-31, 01:45:00,VALID,918.492,VALID,0,VALID,99.3695,VALID,0.0169808,VALID,18.779,VALID,10,VALID,0.726339,
2001-07-31, 01:46:00,VALID,918.465,VALID,0,VALID,99.395,VALID,0.0169808,VALID,18.7951,VALID,9,VALID,0.74399,
2001-07-31, 01:47:00,VALID,918.443,VALID,0,VALID,99.3937,VALID,0,VALID,18.7912,VALID,6,VALID,0.670928,
2001-07-31, 01:48:00,VALID,918.435,VALID,0,VALID,99.395,VALID,0,VALID,18.8274,VALID,12,VALID,0.441406,
2001-07-31, 01:49:00,VALID,918.41,VALID,0,VALID,99.4013,VALID,0,VALID,18.8438,VALID,13,VALID,0.0466694,
2001-07-31, 01:50:00,VALID,918.397,VALID,0,VALID,99.3988,VALID,0,VALID,18.8466,VALID,13,VALID,0,
2001-07-31, 01:51:00,VALID,918.383,VALID,0,VALID,99.4064,VALID,0,VALID,18.853,VALID,13,VALID,0,
2001-07-31, 01:52:00,VALID,918.376,VALID,0,VALID,99.4064,VALID,0,VALID,18.8666,VALID,355,VALID,0.191071,
2001-07-31, 01:53:00,VALID,918.367,VALID,0,VALID,99.4115,VALID,0,VALID,18.8791,VALID,337,VALID,0.335304,
2001-07-31, 01:54:00,VALID,918.361,VALID,0,VALID,99.409,VALID,-0.0169808,VALID,18.889,VALID,345,VALID,0.325827,
2001-07-31, 01:55:00,VALID,918.344,VALID,0,VALID,99.4153,VALID,-0.0169808,VALID,18.8957,VALID,5,VALID,0.449777,
2001-07-31, 01:56:00,VALID,918.321,VALID,0,VALID,99.414,VALID,0,VALID,18.9178,VALID,6,VALID,0.607372,
2001-07-31, 01:57:00,VALID,918.285,VALID,0,VALID,99.4128,VALID,0,VALID,18.9464,VALID,11,VALID,0.667652,
2001-07-31, 01:58:00,VALID,918.263,VALID,0,VALID,99.4051,VALID,0,VALID,18.9404,VALID,352,VALID,0.56764,
2001-07-31, 01:59:00,VALID,918.225,VALID,0,VALID,99.4039,VALID,0.0339617,VALID,18.9303,VALID,6,VALID,0.171652,
2001-07-31, 02:00:00,VALID,918.202,VALID,0,VALID,99.409,VALID,0,VALID,18.9437,VALID,6,VALID,0,
2001-07-31, 02:01:00,VALID,918.176,VALID,0,VALID,99.4039,VALID,0,VALID,18.9464,VALID,6,VALID,0,
2001-07-31, 02:02:00,VALID,918.172,VALID,0,VALID,99.4026,VALID,0.0169808,VALID,18.9531,VALID,6,VALID,0,
2001-07-31, 02:03:00,VALID,918.161,VALID,0,VALID,99.4115,VALID,0,VALID,18.9792,VALID,6,VALID,0,
2001-07-31, 02:04:00,VALID,918.152,VALID,0,VALID,99.4115,VALID,0.0169808,VALID,18.9757,VALID,5,VALID,0,
2001-07-31, 02:05:00,VALID,918.13,VALID,0,VALID,99.4102,VALID,0,VALID,18.9953,VALID,39,VALID,0,
2001-07-31, 02:06:00,VALID,918.107,VALID,0,VALID,99.4128,VALID,0,VALID,19.012,VALID,65,VALID,0,
2001-07-31, 02:07:00,VALID,918.085,VALID,0,VALID,99.4102,VALID,0,VALID,19.0113,VALID,65,VALID,0,
2001-07-31, 02:08:00,VALID,918.049,VALID,0,VALID,99.4179,VALID,0,VALID,19.0212,VALID,65,VALID,0,
2001-07-31, 02:09:00,VALID,918.034,VALID,0,VALID,99.4153,VALID,0,VALID,19.0403,VALID,64,VALID,0,
2001-07-31, 02:10:00,VALID,918.02,VALID,0,VALID,99.4013,VALID,0,VALID,19.0535,VALID,64,VALID,0,
2001-07-31, 02:11:00,VALID,918.028,VALID,0,VALID,99.3899,VALID,-0.0169808,VALID,19.0433,VALID,64,VALID,0,
2001-07-31, 02:12:00,VALID,918.022,VALID,0,VALID,99.3759,VALID,0,VALID,19.0182,VALID,66,VALID,0,
2001-07-31, 02:13:00,VALID,918.027,VALID,0,VALID,99.3721,VALID,0,VALID,18.9924,VALID,74,VALID,0,
2001-07-31, 02:14:00,VALID,918.031,VALID,0,VALID,99.3899,VALID,-0.0339617,VALID,18.9695,VALID,138,VALID,0,
2001-07-31, 02:15:00,VALID,918.017,VALID,0,VALID,99.3873,VALID,0,VALID,18.9732,VALID,138,VALID,0,
2001-07-31, 02:16:00,VALID,918.005,VALID,0,VALID,99.3873,VALID,0,VALID,18.9631,VALID,138,VALID,0,
2001-07-31, 02:17:00,VALID,917.99,VALID,0,VALID,99.3937,VALID,0.0339617,VALID,18.9397,VALID,138,VALID,0,
2001-07-31, 02:18:00,VALID,917.967,VALID,0,VALID,99.3912,VALID,0,VALID,18.9333,VALID,138,VALID,0,
2001-07-31, 02:19:00,VALID,917.95,VALID,0,VALID,99.3937,VALID,0,VALID,18.9365,VALID,138,VALID,0,
2001-07-31, 02:20:00,VALID,917.931,VALID,0,VALID,99.3912,VALID,0,VALID,18.9303,VALID,137,VALID,0,
2001-07-31, 02:21:00,VALID,917.925,VALID,0,VALID,99.3962,VALID,0,VALID,18.9367,VALID,136,VALID,0.0722128,
2001-07-31, 02:22:00,VALID,917.926,VALID,0,VALID,99.3912,VALID,-0.0169808,VALID,18.9367,VALID,137,VALID,0.341682,
2001-07-31, 02:23:00,VALID,917.915,VALID,0,VALID,99.4013,VALID,0.0169808,VALID,18.9434,VALID,140,VALID,0.577902,
2001-07-31, 02:24:00,VALID,917.914,VALID,0,VALID,99.4102,VALID,0,VALID,18.9471,VALID,146,VALID,0.623397,
2001-07-31, 02:25:00,VALID,917.912,VALID,0,VALID,99.4026,VALID,-0.0169808,VALID,18.9499,VALID,141,VALID,0.441512,
2001-07-31, 02:26:00,VALID,917.897,VALID,0,VALID,99.4026,VALID,0,VALID,18.9501,VALID,139,VALID,0.527755,
2001-07-31, 02:27:00,VALID,917.878,VALID,0,VALID,99.4153,VALID,0,VALID,18.9698,VALID,155,VALID,0.527902,
2001-07-31, 02:28:00,VALID,917.861,VALID,0,VALID,99.414,VALID,0,VALID,18.9854,VALID,157,VALID,0.640625,
2001-07-31, 02:29:00,VALID,917.854,VALID,0,VALID,99.4051,VALID,0,VALID,18.9951,VALID,153,VALID,0.52107,
2001-07-31, 02:30:00,VALID,917.857,VALID,0,VALID,99.4064,VALID,0,VALID,19.0053,VALID,167,VALID,0.609592,
2001-07-31, 02:31:00,VALID,917.863,VALID,0,VALID,99.4102,VALID,0,VALID,19.0048,VALID,156,VALID,0.667146,
2001-07-31, 02:32:00,VALID,917.873,VALID,0,VALID,99.3988,VALID,0,VALID,18.9919,VALID,139,VALID,0.561899,
2001-07-31, 02:33:00,VALID,917.873,VALID,0,VALID,99.3988,VALID,0,VALID,18.9847,VALID,144,VALID,0.600586,
2001-07-31, 02:34:00,VALID,917.876,VALID,0,VALID,99.3988,VALID,0,VALID,18.9891,VALID,147,VALID,0.666295,
2001-07-31, 02:35:00,VALID,917.862,VALID,0,VALID,99.4077,VALID,-0.0169808,VALID,18.9688,VALID,144,VALID,0.776394,
2001-07-31, 02:36:00,VALID,917.86,VALID,0,VALID,99.409,VALID,0.0169808,VALID,18.9757,VALID,141,VALID,0.840303,
2001-07-31, 02:37:00,VALID,917.843,VALID,0,VALID,99.4026,VALID,0,VALID,18.9693,VALID,140,VALID,0.59016,
2001-07-31, 02:38:00,VALID,917.852,VALID,0,VALID,99.4013,VALID,0,VALID,18.9693,VALID,141,VALID,0.642428,
2001-07-31, 02:39:00,VALID,917.84,VALID,0,VALID,99.409,VALID,-0.0169808,VALID,18.9686,VALID,145,VALID,0.510557,
2001-07-31, 02:40:00,VALID,917.823,VALID,0,VALID,99.4191,VALID,0,VALID,18.972,VALID,143,VALID,0.642681,
2001-07-31, 02:41:00,VALID,917.826,VALID,0,VALID,99.4001,VALID,0,VALID,18.972,VALID,142,VALID,0.429464,
2001-07-31, 02:42:00,VALID,917.808,VALID,0,VALID,99.409,VALID,0,VALID,18.9921,VALID,116,VALID,0.588942,
2001-07-31, 02:43:00,VALID,917.8,VALID,0,VALID,99.4077,VALID,0,VALID,18.9753,VALID,123,VALID,0.386127,
2001-07-31, 02:44:00,VALID,917.766,VALID,0,VALID,99.4166,VALID,-0.0169808,VALID,18.9949,VALID,122,VALID,0.127604,
2001-07-31, 02:45:00,VALID,917.763,VALID,0,VALID,99.4102,VALID,-0.0339617,VALID,18.9986,VALID,100,VALID,0.527961,
2001-07-31, 02:46:00,VALID,917.744,VALID,0,VALID,99.4179,VALID,-0.0169808,VALID,18.9914,VALID,115,VALID,0.167268,
2001-07-31, 02:47:00,VALID,917.723,VALID,0,VALID,99.4153,VALID,0,VALID,19.0046,VALID,136,VALID,0.367578,
2001-07-31, 02:48:00,VALID,917.713,VALID,0,VALID,99.4166,VALID,-0.0169808,VALID,19.008,VALID,135,VALID,0.498437,
2001-07-31, 02:49:00,VALID,917.706,VALID,0,VALID,99.4191,VALID,-0.0169808,VALID,19.0078,VALID,133,VALID,0.593539,
2001-07-31, 02:50:00,VALID,917.719,VALID,0,VALID,99.4166,VALID,0,VALID,19.0078,VALID,134,VALID,0.379136,
2001-07-31, 02:51:00,VALID,917.709,VALID,0,VALID,99.4229,VALID,0,VALID,19.0011,VALID,135,VALID,0.129241,
2001-07-31, 02:52:00,VALID,917.713,VALID,0,VALID,99.4179,VALID,-0.0169808,VALID,19.0046,VALID,140,VALID,0,
2001-07-31, 02:53:00,VALID,917.706,VALID,0,VALID,99.414,VALID,0,VALID,19.0108,VALID,149,VALID,0,
2001-07-31, 02:54:00,VALID,917.693,VALID,0,VALID,99.414,VALID,-0.0169808,VALID,19.011,VALID,148,VALID,0,
2001-07-31, 02:55:00,VALID,917.674,VALID,0,VALID,99.4077,VALID,0,VALID,19.0011,VALID,147,VALID,0,
2001-07-31, 02:56:00,VALID,917.644,VALID,0,VALID,99.4166,VALID,0,VALID,19.0043,VALID,153,VALID,0,
2001-07-31, 02:57:00,VALID,917.631,VALID,0,VALID,99.4153,VALID,0,VALID,19.014,VALID,144,VALID,0,
2001-07-31, 02:58:00,VALID,917.624,VALID,0,VALID,99.4217,VALID,0.0169808,VALID,19.017,VALID,138,VALID,0,
2001-07-31, 02:59:00,VALID,917.62,VALID,0,VALID,99.4255,VALID,0,VALID,19.0205,VALID,116,VALID,0,
2001-07-31, 03:00:00,VALID,917.61,VALID,0,VALID,99.4153,VALID,0.0509425,VALID,19.0175,VALID,116,VALID,0,
2001-07-31, 03:01:00,VALID,917.595,VALID,0,VALID,99.4179,VALID,-0.0169808,VALID,19.0011,VALID,138,VALID,0.000195313,
2001-07-31, 03:02:00,VALID,917.609,VALID,0,VALID,99.4179,VALID,0,VALID,19.0073,VALID,133,VALID,0.00133929,
2001-07-31, 03:03:00,VALID,917.596,VALID,0,VALID,99.4217,VALID,0,VALID,19.0075,VALID,143,VALID,0.0690456,
2001-07-31, 03:04:00,VALID,917.597,VALID,0,VALID,99.4229,VALID,0,VALID,19.0075,VALID,142,VALID,0.397748,
2001-07-31, 03:05:00,VALID,917.615,VALID,0,VALID,99.4217,VALID,0,VALID,19.011,VALID,139,VALID,0.309152,
2001-07-31, 03:06:00,VALID,917.612,VALID,0,VALID,99.4229,VALID,0,VALID,19.0011,VALID,149,VALID,1.01563,
2001-07-31, 03:07:00,VALID,917.615,VALID,0,VALID,99.4268,VALID,-0.0169808,VALID,19.0043,VALID,149,VALID,0.572846,
2001-07-31, 03:08:00,VALID,917.608,VALID,0,VALID,99.4242,VALID,0,VALID,19.0209,VALID,154,VALID,0.711554,
2001-07-31, 03:09:00,VALID,917.622,VALID,0,VALID,99.428,VALID,-0.0169808,VALID,19.011,VALID,133,VALID,1.17478,
2001-07-31, 03:10:00,VALID,917.629,VALID,0,VALID,99.4242,VALID,-0.0169808,VALID,18.9946,VALID,130,VALID,0.879207,
2001-07-31, 03:11:00,VALID,917.645,VALID,0,VALID,99.4229,VALID,0,VALID,19.0113,VALID,151,VALID,1.04498,
2001-07-31, 03:12:00,VALID,917.636,VALID,0,VALID,99.428,VALID,0.0169808,VALID,19.0043,VALID,149,VALID,0.928819,
2001-07-31, 03:13:00,VALID,917.646,VALID,0,VALID,99.4268,VALID,-0.0169808,VALID,19.0207,VALID,156,VALID,1.03104,
2001-07-31, 03:14:00,VALID,917.643,VALID,0,VALID,99.4318,VALID,-0.0169808,VALID,19.0175,VALID,158,VALID,1.34535,
2001-07-31, 03:15:00,VALID,917.633,VALID,0,VALID,99.4306,VALID,0,VALID,19.0272,VALID,148,VALID,1.26816,
2001-07-31, 03:16:00,VALID,917.644,VALID,0,VALID,99.4331,VALID,-0.0169808,VALID,19.0274,VALID,141,VALID,1.5596,
2001-07-31, 03:17:00,VALID,917.671,VALID,0,VALID,99.4306,VALID,-0.0169808,VALID,19.0209,VALID,144,VALID,1.54371,
2001-07-31, 03:18:00,VALID,917.694,VALID,0,VALID,99.442,VALID,0,VALID,19.0237,VALID,144,VALID,1.14844,
2001-07-31, 03:19:00,VALID,917.725,VALID,0,VALID,99.4217,VALID,0,VALID,19.0341,VALID,145,VALID,1.04152,
2001-07-31, 03:20:00,VALID,917.733,VALID,0,VALID,99.4433,VALID,0,VALID,19.0302,VALID,151,VALID,1.11699,
2001-07-31, 03:21:00,VALID,917.741,VALID,0,VALID,99.442,VALID,0,VALID,19.053,VALID,132,VALID,0.631968,
2001-07-31, 03:22:00,VALID,917.736,VALID,0,VALID,99.4433,VALID,-0.0169808,VALID,19.0493,VALID,143,VALID,1.72944,
2001-07-31, 03:23:00,VALID,917.717,VALID,0,VALID,99.4471,VALID,-0.0169808,VALID,19.0558,VALID,136,VALID,1.29241,
2001-07-31, 03:24:00,VALID,917.685,VALID,0,VALID,99.4408,VALID,-0.0169808,VALID,19.0729,VALID,147,VALID,0.824119,
2001-07-31, 03:25:00,VALID,917.662,VALID,0,VALID,99.4433,VALID,-0.0169808,VALID,19.0654,VALID,152,VALID,0.928977,
2001-07-31, 03:26:00,VALID,917.646,VALID,0,VALID,99.4433,VALID,0,VALID,19.0821,VALID,108,VALID,0.715061,
2001-07-31, 03:27:00,VALID,917.617,VALID,0,VALID,99.4458,VALID,-0.0169808,VALID,19.0885,VALID,54,VALID,0.745477,
2001-07-31, 03:28:00,VALID,917.605,VALID,0,VALID,99.4433,VALID,-0.0509425,VALID,19.1017,VALID,61,VALID,0.955929,
2001-07-31, 03:29:00,VALID,917.603,VALID,0,VALID,99.4331,VALID,-0.101885,VALID,19.1029,VALID,61,VALID,0.975195,
2001-07-31, 03:30:00,VALID,917.589,VALID,0,VALID,99.4369,VALID,-0.101885,VALID,19.0962,VALID,65,VALID,1.11384,
2001-07-31, 03:31:00,VALID,917.578,VALID,0,VALID,99.4382,VALID,-0.101885,VALID,19.0865,VALID,47,VALID,0.51837,
2001-07-31, 03:32:00,VALID,917.57,VALID,0,VALID,99.4357,VALID,-0.101885,VALID,19.08,VALID,91,VALID,0.612362,
2001-07-31, 03:33:00,VALID,917.55,VALID,0,VALID,99.4357,VALID,-0.101885,VALID,19.0706,VALID,105,VALID,0.745313,
2001-07-31, 03:34:00,VALID,917.54,VALID,0,VALID,99.4318,VALID,-0.0849042,VALID,19.051,VALID,103,VALID,0.652244,
2001-07-31, 03:35:00,VALID,917.519,VALID,0,VALID,99.4344,VALID,-0.101885,VALID,19.048,VALID,92,VALID,0.527449,
2001-07-31, 03:36:00,VALID,917.514,VALID,0,VALID,99.4369,VALID,-0.118866,VALID,19.045,VALID,103,VALID,0.432977,
2001-07-31, 03:37:00,VALID,917.524,VALID,0,VALID,99.4408,VALID,-0.0849042,VALID,19.0443,VALID,105,VALID,0.367411,
2001-07-31, 03:38:00,VALID,917.513,VALID,0,VALID,99.4408,VALID,-0.118866,VALID,19.0507,VALID,82,VALID,0.705529,
2001-07-31, 03:39:00,VALID,917.515,VALID,0,VALID,99.4484,VALID,-0.118866,VALID,19.0614,VALID,101,VALID,0.744318,
2001-07-31, 03:40:00,VALID,917.522,VALID,0,VALID,99.4344,VALID,-0.152827,VALID,19.0544,VALID,106,VALID,0.657118,
2001-07-31, 03:41:00,VALID,917.515,VALID,0,VALID,99.4458,VALID,-0.101885,VALID,19.0708,VALID,97,VALID,0.277755,